Time,TemperatureF,DewpointF,PressureIn,WindDirection,WindDirectionDegrees,WindSpeedMPH,WindSpeedGustMPH,Humidity,HourlyPrecipIn,Conditions,Clouds,dailyrainin,SoftwareType,DateUTC
2013-06-19 00:02:00,67.2,47.9,29.85,NNW,335,3.5,3.5,50,0.00,CLR,,0.00,WeatherDisplay:10.37,2013-06-19 07:02:00,
2013-06-19 00:07:00,67.1,47.8,29.86,WNW,297,3.5,3.5,50,0.00,CLR,,0.00,WeatherDisplay:10.37,2013-06-19 07:07:00,
2013-06-19 00:12:00,67.0,47.7,29.86,North,359,5.8,5.8,50,0.00,CLR,,0.00,WeatherDisplay:10.37,2013-06-19 07:12:00,
2013-06-19 00:17:00,66.7,47.5,29.86,NW,324,5.0,5.0,50,0.00,CLR,,0.00,WeatherDisplay:10.37,2013-06-19 07:17:00,
2013-06-19 00:22:00,66.4,47.2,29.86,NW,322,5.8,5.8,50,0.00,CLR,,0.00,WeatherDisplay:10.37,2013-06-19 07:22:00,
2013-06-19 00:27:00,66.2,47.0,29.87,NW,319,4.0,4.0,50,0.00,CLR,,0.00,WeatherDisplay:10.37,2013-06-19 07:27:00,
2013-06-19 00:32:00,65.9,47.3,29.87,NNW,330,3.5,3.5,51,0.00,CLR,,0.00,WeatherDisplay:10.37,2013-06-19 07:32:00,
2013-06-19 00:37:00,65.6,47.0,29.87,North,356,3.5,3.5,51,0.00,CLR,,0.00,WeatherDisplay:10.37,2013-06-19 07:37:00,
2013-06-19 00:42:00,65.4,47.3,29.87,NNW,345,4.6,4.6,52,0.00,CLR,,0.00,WeatherDisplay:10.37,2013-06-19 07:42:00,
2013-06-19 00:47:00,65.1,47.0,29.87,North,4,3.5,3.5,52,0.00,CLR,,0.00,WeatherDisplay:10.37,2013-06-19 07:47:00,
2013-06-19 00:52:00,65.0,46.9,29.87,NNW,330,3.5,3.5,52,0.00,CLR,,0.00,WeatherDisplay:10.37,2013-06-19 07:52:00,
2013-06-19 00:57:00,64.8,47.3,29.87,WNW,288,3.5,3.5,53,0.00,CLR,,0.00,WeatherDisplay:10.37,2013-06-19 07:57:00,
2013-06-19 01:02:00,64.6,47.1,29.87,NNW,328,2.3,2.3,53,0.00,CLR,,0.00,WeatherDisplay:10.37,2013-06-19 08:02:00,
2013-06-19 01:07:00,64.4,47.4,29.87,NNE,16,2.3,2.3,54,0.00,CLR,,0.00,WeatherDisplay:10.37,2013-06-19 08:07:00,
2013-06-19 01:12:00,64.1,47.1,29.87,NNW,330,3.5,3.5,54,0.00,CLR,,0.00,WeatherDisplay:10.37,2013-06-19 08:12:00,
2013-06-19 01:17:00,63.9,47.4,29.87,NW,314,3.5,3.5,55,0.00,CLR,,0.00,WeatherDisplay:10.37,2013-06-19 08:17:00,
2013-06-19 01:22:00,63.8,47.3,29.87,NW,324,3.5,3.5,55,0.00,CLR,,0.00,WeatherDisplay:10.37,2013-06-19 08:22:00,
2013-06-19 01:27:00,63.6,47.6,29.87,NNW,333,3.5,3.5,56,0.00,CLR,,0.00,WeatherDisplay:10.37,2013-06-19 08:27:00,
2013-06-19 01:32:00,63.4,47.4,29.87,NNW,330,1.2,1.2,56,0.00,CLR,,0.00,WeatherDisplay:10.37,2013-06-19 08:32:00,
2013-06-19 01:37:00,63.3,47.3,29.87,NNW,339,3.0,3.0,56,0.00,CLR,,0.00,WeatherDisplay:10.37,2013-06-19 08:37:00,
2013-06-19 01:42:00,63.1,47.6,29.87,NW,325,2.3,2.3,57,0.00,CLR,,0.00,WeatherDisplay:10.37,2013-06-19 08:42:00,
2013-06-19 01:47:00,63.0,47.5,29.87,North,353,2.3,2.3,57,0.00,CLR,,0.00,WeatherDisplay:10.37,2013-06-19 08:47:00,
2013-06-19 01:52:00,62.8,47.3,29.87,North,359,2.3,2.3,57,0.00,CLR,,0.00,WeatherDisplay:10.37,2013-06-19 08:52:00,
2013-06-19 01:57:00,62.6,47.6,29.87,WNW,284,2.0,2.0,58,0.00,CLR,,0.00,WeatherDisplay:10.37,2013-06-19 08:57:00,
2013-06-19 02:02:00,62.4,47.4,29.87,NNW,335,2.3,2.3,58,0.00,CLR,,0.00,WeatherDisplay:10.37,2013-06-19 09:02:00,
2013-06-19 02:07:00,62.2,47.2,29.87,NNW,339,1.2,1.2,58,0.00,CLR,,0.00,WeatherDisplay:10.37,2013-06-19 09:07:00,
2013-06-19 02:12:00,62.0,47.5,29.88,NNW,339,2.3,2.3,59,0.00,CLR,,0.00,WeatherDisplay:10.37,2013-06-19 09:12:00,
2013-06-19 02:17:00,61.9,47.4,29.88,NNW,336,3.5,3.5,59,0.00,CLR,,0.00,WeatherDisplay:10.37,2013-06-19 09:17:00,
2013-06-19 02:22:00,61.7,47.2,29.88,NW,324,3.5,3.5,59,0.00,CLR,,0.00,WeatherDisplay:10.37,2013-06-19 09:22:00,
2013-06-19 02:27:00,61.6,47.6,29.88,NNW,341,2.3,2.3,60,0.00,CLR,,0.00,WeatherDisplay:10.37,2013-06-19 09:27:00,
2013-06-19 02:32:00,61.3,47.7,29.88,NNW,340,1.0,1.0,61,0.00,CLR,,0.00,WeatherDisplay:10.37,2013-06-19 09:32:00,
2013-06-19 02:37:00,61.0,47.4,29.88,NNW,333,2.3,2.3,61,0.00,CLR,,0.00,WeatherDisplay:10.37,2013-06-19 09:37:00,
2013-06-19 02:42:00,60.9,47.4,29.88,NNW,333,3.5,3.5,61,0.00,CLR,,0.00,WeatherDisplay:10.37,2013-06-19 09:42:00,
2013-06-19 02:47:00,60.9,47.4,29.88,North,9,3.5,3.5,61,0.00,CLR,,0.00,WeatherDisplay:10.37,2013-06-19 09:47:00,
2013-06-19 02:52:00,60.8,47.7,29.89,WNW,297,3.5,3.5,62,0.00,CLR,,0.00,WeatherDisplay:10.37,2013-06-19 09:52:00,
2013-06-19 02:57:00,60.7,47.6,29.89,NNW,339,3.5,3.5,62,0.00,CLR,,0.00,WeatherDisplay:10.37,2013-06-19 09:57:00,
2013-06-19 03:02:00,60.5,47.4,29.89,WSW,242,1.2,0.0,62,0.00,CLR,,0.00,WeatherDisplay:10.37,2013-06-19 10:02:00,
2013-06-19 03:07:00,60.3,47.6,29.89,WNW,291,0.0,0.1,63,0.00,CLR,,0.00,WeatherDisplay:10.37,2013-06-19 10:07:00,
2013-06-19 03:12:00,59.9,47.7,29.89,WNW,286,1.0,1.0,64,0.00,CLR,,0.00,WeatherDisplay:10.37,2013-06-19 10:12:00,
2013-06-19 03:17:00,59.5,47.7,29.89,WNW,290,0.0,0.0,65,0.00,CLR,,0.00,WeatherDisplay:10.37,2013-06-19 10:17:00,
2013-06-19 03:22:00,59.2,47.4,29.89,West,269,0.0,0.0,65,0.00,CLR,,0.00,WeatherDisplay:10.37,2013-06-19 10:22:00,
2013-06-19 03:27:00,58.9,47.2,29.90,West,260,1.2,0.0,65,0.00,CLR,,0.00,WeatherDisplay:10.37,2013-06-19 10:27:00,
2013-06-19 03:32:00,58.7,47.0,29.90,WSW,246,1.2,1.2,65,0.00,CLR,,0.00,WeatherDisplay:10.37,2013-06-19 10:32:00,
2013-06-19 03:37:00,58.4,47.1,29.90,West,259,1.2,1.2,66,0.00,CLR,,0.00,WeatherDisplay:10.37,2013-06-19 10:37:00,
2013-06-19 03:42:00,58.2,46.9,29.90,WSW,258,1.2,0.0,66,0.00,CLR,,0.00,WeatherDisplay:10.37,2013-06-19 10:42:00,
2013-06-19 03:47:00,57.9,46.6,29.90,West,274,0.0,0.0,66,0.00,CLR,,0.00,WeatherDisplay:10.37,2013-06-19 10:47:00,
2013-06-19 03:52:00,57.7,46.8,29.90,NNW,339,1.0,0.0,67,0.00,CLR,,0.00,WeatherDisplay:10.37,2013-06-19 10:52:00,
2013-06-19 03:57:00,57.4,46.5,29.90,NW,309,1.2,0.0,67,0.00,CLR,,0.00,WeatherDisplay:10.37,2013-06-19 10:57:00,
2013-06-19 04:02:00,57.3,46.4,29.91,North,6,1.2,0.0,67,0.00,CLR,,0.00,WeatherDisplay:10.37,2013-06-19 11:02:00,
2013-06-19 04:07:00,57.2,46.3,29.91,North,5,1.2,0.0,67,0.00,CLR,,0.00,WeatherDisplay:10.37,2013-06-19 11:07:00,
2013-06-19 04:12:00,57.1,46.6,29.91,North,5,0.0,0.0,68,0.00,CLR,,0.00,WeatherDisplay:10.37,2013-06-19 11:12:00,
2013-06-19 04:17:00,57.1,46.6,29.91,NNW,333,2.3,2.3,68,0.00,CLR,,0.00,WeatherDisplay:10.37,2013-06-19 11:17:00,
2013-06-19 04:22:00,57.1,46.6,29.91,NNW,335,0.0,0.0,68,0.00,CLR,,0.00,WeatherDisplay:10.37,2013-06-19 11:22:00,
2013-06-19 04:27:00,57.0,46.5,29.91,NNW,333,0.0,0.0,68,0.00,CLR,,0.00,WeatherDisplay:10.37,2013-06-19 11:27:00,
2013-06-19 04:32:00,56.8,46.3,29.91,NNW,333,0.0,0.0,68,0.00,CLR,,0.00,WeatherDisplay:10.37,2013-06-19 11:32:00,
2013-06-19 04:37:00,56.7,46.6,29.91,NNW,333,0.0,0.0,69,0.00,CLR,,0.00,WeatherDisplay:10.37,2013-06-19 11:37:00,
2013-06-19 04:42:00,56.5,46.4,29.91,NNW,333,0.0,0.0,69,0.00,CLR,,0.00,WeatherDisplay:10.37,2013-06-19 11:42:00,
2013-06-19 04:47:00,56.3,46.6,29.91,NNW,333,0.0,0.0,70,0.00,CLR,,0.00,WeatherDisplay:10.37,2013-06-19 11:47:00,
2013-06-19 04:52:00,56.1,46.8,29.91,NNW,333,0.0,0.0,71,0.00,CLR,,0.00,WeatherDisplay:10.37,2013-06-19 11:52:00,
2013-06-19 04:57:00,55.9,46.6,29.91,NNW,333,0.0,0.0,71,0.00,CLR,,0.00,WeatherDisplay:10.37,2013-06-19 11:57:00,
2013-06-19 05:02:00,55.8,46.5,29.91,NNW,333,0.0,0.0,71,0.00,CLR,,0.00,WeatherDisplay:10.37,2013-06-19 12:02:00,
2013-06-19 05:07:00,55.7,46.8,29.92,NNW,333,0.0,0.0,72,0.00,CLR,,0.00,WeatherDisplay:10.37,2013-06-19 12:07:00,
2013-06-19 05:12:00,55.5,46.6,29.92,NNW,333,0.0,0.0,72,0.00,CLR,,0.00,WeatherDisplay:10.37,2013-06-19 12:12:00,
2013-06-19 05:17:00,55.3,46.4,29.92,NNW,333,0.0,0.0,72,0.00,CLR,,0.00,WeatherDisplay:10.37,2013-06-19 12:17:00,
2013-06-19 05:22:00,55.1,46.6,29.92,NNW,328,0.0,0.0,73,0.00,CLR,,0.00,WeatherDisplay:10.37,2013-06-19 12:22:00,
2013-06-19 05:27:00,54.9,46.4,29.92,NNW,328,0.0,0.0,73,0.00,CLR,,0.00,WeatherDisplay:10.37,2013-06-19 12:27:00,
2013-06-19 05:32:00,54.7,46.2,29.92,NNW,328,0.0,0.0,73,0.00,CLR,,0.00,WeatherDisplay:10.37,2013-06-19 12:32:00,
2013-06-19 05:37:00,54.5,46.4,29.92,NNW,328,0.0,0.0,74,0.00,CLR,,0.00,WeatherDisplay:10.37,2013-06-19 12:37:00,
2013-06-19 05:42:00,54.3,46.2,29.92,NNW,330,0.0,0.0,74,0.00,CLR,,0.00,WeatherDisplay:10.37,2013-06-19 12:42:00,
2013-06-19 05:47:00,54.1,46.3,29.92,NNW,330,0.0,0.0,75,0.00,CLR,,0.00,WeatherDisplay:10.37,2013-06-19 12:47:00,
2013-06-19 05:52:00,54.0,46.3,29.93,NNW,330,0.0,0.0,75,0.00,CLR,,0.00,WeatherDisplay:10.37,2013-06-19 12:52:00,
2013-06-19 05:57:00,53.9,46.2,29.93,NNW,330,0.0,0.0,75,0.00,CLR,,0.00,WeatherDisplay:10.37,2013-06-19 12:57:00,
2013-06-19 06:02:00,53.8,46.1,29.93,West,277,0.0,0.0,75,0.00,CLR,,0.00,WeatherDisplay:10.37,2013-06-19 13:02:00,
2013-06-19 06:07:00,53.7,46.3,29.93,West,276,0.0,0.0,76,0.00,CLR,,0.00,WeatherDisplay:10.37,2013-06-19 13:07:00,
2013-06-19 06:12:00,53.7,46.3,29.93,West,277,0.0,0.0,76,0.00,CLR,,0.00,WeatherDisplay:10.37,2013-06-19 13:12:00,
2013-06-19 06:17:00,53.7,46.3,29.94,West,277,0.0,0.0,76,0.00,CLR,,0.00,WeatherDisplay:10.37,2013-06-19 13:17:00,
2013-06-19 06:22:00,53.7,46.3,29.94,West,276,0.0,0.0,76,0.00,CLR,,0.00,WeatherDisplay:10.37,2013-06-19 13:22:00,
2013-06-19 06:27:00,53.7,46.3,29.94,West,277,0.0,0.0,76,0.00,CLR,,0.00,WeatherDisplay:10.37,2013-06-19 13:27:00,
2013-06-19 06:32:00,53.8,46.8,29.94,SW,235,0.0,0.0,77,0.00,CLR,,0.00,WeatherDisplay:10.37,2013-06-19 13:32:00,
2013-06-19 06:37:00,54.1,46.7,29.94,SW,235,0.0,0.0,76,0.00,CLR,,0.00,WeatherDisplay:10.37,2013-06-19 13:37:00,
2013-06-19 06:42:00,54.2,46.8,29.95,SW,235,0.0,0.0,76,0.00,CLR,,0.00,WeatherDisplay:10.37,2013-06-19 13:42:00,
2013-06-19 06:47:00,54.5,47.1,29.95,SW,235,0.0,0.0,76,0.00,CLR,,0.00,WeatherDisplay:10.37,2013-06-19 13:47:00,
2013-06-19 06:52:00,54.7,47.3,29.95,SW,235,0.0,0.0,76,0.00,CLR,,0.00,WeatherDisplay:10.37,2013-06-19 13:52:00,
2013-06-19 06:57:00,54.9,47.1,29.95,SW,235,0.0,0.0,75,0.00,CLR,,0.00,WeatherDisplay:10.37,2013-06-19 13:57:00,
2013-06-19 07:02:00,55.2,47.4,29.95,SW,235,0.0,0.0,75,0.00,CLR,,0.00,WeatherDisplay:10.37,2013-06-19 14:02:00,
2013-06-19 07:07:00,55.6,47.4,29.95,SW,235,0.0,0.0,74,0.00,CLR,,0.00,WeatherDisplay:10.37,2013-06-19 14:07:00,
2013-06-19 07:12:00,55.8,47.6,29.95,SW,235,0.0,0.0,74,0.00,CLR,,0.00,WeatherDisplay:10.37,2013-06-19 14:12:00,
2013-06-19 07:17:00,56.0,47.5,29.96,SW,235,0.0,0.0,73,0.00,CLR,,0.00,WeatherDisplay:10.37,2013-06-19 14:17:00,
2013-06-19 07:22:00,56.2,47.3,29.96,SW,235,0.0,0.0,72,0.00,CLR,,0.00,WeatherDisplay:10.37,2013-06-19 14:22:00,
2013-06-19 07:27:00,56.3,47.4,29.96,SW,235,0.0,0.0,72,0.00,CLR,,0.00,WeatherDisplay:10.37,2013-06-19 14:27:00,
2013-06-19 07:32:00,56.5,47.9,29.96,SW,233,0.0,0.0,73,0.00,CLR,,0.00,WeatherDisplay:10.37,2013-06-19 14:32:00,
2013-06-19 07:39:00,56.7,48.1,29.96,SW,226,0.0,0.0,73,0.00,CLR,,0.00,WeatherDisplay:10.37,2013-06-19 14:39:00,
2013-06-19 07:44:00,56.9,49.1,29.96,SSW,204,0.0,0.0,75,0.00,CLR,,0.00,WeatherDisplay:10.37,2013-06-19 14:44:00,
2013-06-19 07:49:00,57.0,48.4,29.96,WSW,258,0.0,0.0,73,0.00,CLR,,0.00,WeatherDisplay:10.37,2013-06-19 14:49:00,
2013-06-19 07:54:00,57.3,48.3,29.97,WNW,290,0.0,0.8,72,0.00,CLR,,0.00,WeatherDisplay:10.37,2013-06-19 14:54:00,
2013-06-19 07:59:00,57.6,48.3,29.97,WNW,291,1.0,0.0,71,0.00,CLR,,0.00,WeatherDisplay:10.37,2013-06-19 14:59:00,
2013-06-19 08:04:00,57.8,48.1,29.97,West,280,1.2,1.2,70,0.00,CLR,,0.00,WeatherDisplay:10.37,2013-06-19 15:04:00,
2013-06-19 08:09:00,58.0,48.6,29.97,NNW,333,1.2,1.2,71,0.00,CLR,,0.00,WeatherDisplay:10.37,2013-06-19 15:09:00,
2013-06-19 08:14:00,58.3,48.6,29.97,WNW,284,0.0,0.0,70,0.00,CLR,,0.00,WeatherDisplay:10.37,2013-06-19 15:14:00,
2013-06-19 08:19:00,58.4,48.3,29.97,West,273,0.0,0.0,69,0.00,CLR,,0.00,WeatherDisplay:10.37,2013-06-19 15:19:00,
2013-06-19 08:24:00,58.6,48.5,29.97,SSW,204,0.0,0.1,69,0.00,CLR,,0.00,WeatherDisplay:10.37,2013-06-19 15:24:00,
2013-06-19 08:29:00,58.9,48.7,29.97,SSW,201,0.0,0.0,69,0.00,CLR,,0.00,WeatherDisplay:10.37,2013-06-19 15:29:00,
2013-06-19 08:34:00,59.3,48.7,29.97,NNW,328,1.2,0.0,68,0.00,CLR,,0.00,WeatherDisplay:10.37,2013-06-19 15:34:00,
2013-06-19 08:39:00,59.6,49.0,29.97,SSW,195,0.0,0.0,68,0.00,CLR,,0.00,WeatherDisplay:10.37,2013-06-19 15:39:00,
2013-06-19 08:44:00,59.9,49.3,29.97,SSE,152,0.0,0.0,68,0.00,CLR,,0.00,WeatherDisplay:10.37,2013-06-19 15:44:00,
2013-06-19 08:49:00,60.3,49.7,29.98,WSW,252,1.2,1.2,68,0.00,CLR,,0.00,WeatherDisplay:10.37,2013-06-19 15:49:00,
2013-06-19 08:54:00,60.5,48.7,29.98,SSW,205,1.2,0.0,65,0.00,CLR,,0.00,WeatherDisplay:10.37,2013-06-19 15:54:00,
2013-06-19 08:59:00,60.6,48.8,29.97,SW,218,0.0,0.0,65,0.00,CLR,,0.00,WeatherDisplay:10.37,2013-06-19 15:59:00,
2013-06-19 09:04:00,60.8,49.0,29.98,SW,232,1.0,0.0,65,0.00,CLR,,0.00,WeatherDisplay:10.37,2013-06-19 16:04:00,
2013-06-19 09:09:00,61.0,49.6,29.98,NW,318,0.0,0.0,66,0.00,CLR,,0.00,WeatherDisplay:10.37,2013-06-19 16:09:00,
2013-06-19 09:14:00,61.4,49.5,29.98,West,278,1.2,0.0,65,0.00,CLR,,0.00,WeatherDisplay:10.37,2013-06-19 16:14:00,
2013-06-19 09:19:00,61.7,49.4,29.98,WSW,238,1.2,0.0,64,0.00,CLR,,0.00,WeatherDisplay:10.37,2013-06-19 16:19:00,
2013-06-19 09:25:00,62.1,49.8,29.98,SSE,166,1.2,1.2,64,0.00,CLR,,0.00,WeatherDisplay:10.37,2013-06-19 16:25:00,
2013-06-19 09:30:00,62.5,49.3,29.98,WSW,249,3.5,3.5,62,0.00,CLR,,0.00,WeatherDisplay:10.37,2013-06-19 16:30:00,
2013-06-19 09:35:00,62.8,49.6,29.98,SSW,210,1.2,1.2,62,0.00,CLR,,0.00,WeatherDisplay:10.37,2013-06-19 16:35:00,
2013-06-19 09:40:00,62.9,49.7,29.98,West,260,1.0,1.0,62,0.00,CLR,,0.00,WeatherDisplay:10.37,2013-06-19 16:40:00,
2013-06-19 09:45:00,62.9,50.1,29.98,SW,228,1.2,1.2,63,0.00,CLR,,0.00,WeatherDisplay:10.37,2013-06-19 16:45:00,
2013-06-19 09:50:00,63.2,50.0,29.98,SW,234,1.2,1.2,62,0.00,CLR,,0.00,WeatherDisplay:10.37,2013-06-19 16:50:00,
2013-06-19 09:55:00,63.5,49.8,29.97,WSW,253,3.5,3.5,61,0.00,CLR,,0.00,WeatherDisplay:10.37,2013-06-19 16:55:00,
2013-06-19 10:00:00,63.8,49.2,29.98,NNW,330,0.0,0.0,59,0.00,CLR,,0.00,WeatherDisplay:10.37,2013-06-19 17:00:00,
2013-06-19 10:05:00,63.9,49.7,29.98,SW,232,1.2,0.0,60,0.00,CLR,,0.00,WeatherDisplay:10.37,2013-06-19 17:05:00,
2013-06-19 10:10:00,63.9,49.7,29.97,WSW,246,1.2,1.2,60,0.00,CLR,,0.00,WeatherDisplay:10.37,2013-06-19 17:10:00,
2013-06-19 10:15:00,64.2,50.0,29.97,SW,229,1.2,1.2,60,0.00,CLR,,0.00,WeatherDisplay:10.37,2013-06-19 17:15:00,
2013-06-19 10:20:00,64.6,50.8,29.97,SW,229,0.0,0.0,61,0.00,CLR,,0.00,WeatherDisplay:10.37,2013-06-19 17:20:00,
2013-06-19 10:25:00,65.2,50.0,29.97,NW,311,1.2,0.0,58,0.00,CLR,,0.00,WeatherDisplay:10.37,2013-06-19 17:25:00,
2013-06-19 10:30:00,65.5,49.9,29.97,SSE,151,1.2,0.0,57,0.00,CLR,,0.00,WeatherDisplay:10.37,2013-06-19 17:30:00,
2013-06-19 10:35:00,65.7,49.6,29.97,NW,313,3.5,3.5,56,0.00,CLR,,0.00,WeatherDisplay:10.37,2013-06-19 17:35:00,
2013-06-19 10:40:00,65.3,50.1,29.97,ENE,58,2.3,2.3,58,0.00,CLR,,0.00,WeatherDisplay:10.37,2013-06-19 17:40:00,
2013-06-19 10:45:00,65.8,50.1,29.97,West,271,3.5,3.5,57,0.00,CLR,,0.00,WeatherDisplay:10.37,2013-06-19 17:45:00,
2013-06-19 10:50:00,66.1,49.5,29.97,NNW,328,3.5,3.5,55,0.00,CLR,,0.00,WeatherDisplay:10.37,2013-06-19 17:50:00,
2013-06-19 10:55:00,66.4,50.2,29.97,SE,129,1.2,1.2,56,0.00,CLR,,0.00,WeatherDisplay:10.37,2013-06-19 17:55:00,
2013-06-19 11:00:00,66.8,50.1,29.97,North,359,3.0,3.0,55,0.00,CLR,,0.00,WeatherDisplay:10.37,2013-06-19 18:00:00,
2013-06-19 11:05:00,66.7,49.5,29.97,WNW,284,2.3,2.3,54,0.00,CLR,,0.00,WeatherDisplay:10.37,2013-06-19 18:05:00,
2013-06-19 11:10:00,66.5,49.8,29.97,NNW,347,2.3,2.3,55,0.00,CLR,,0.00,WeatherDisplay:10.37,2013-06-19 18:10:00,
2013-06-19 11:15:00,66.7,49.5,29.97,SSW,212,2.0,2.0,54,0.00,CLR,,0.00,WeatherDisplay:10.37,2013-06-19 18:15:00,
2013-06-19 11:20:00,67.1,49.9,29.97,NNW,333,2.3,2.3,54,0.00,CLR,,0.00,WeatherDisplay:10.37,2013-06-19 18:20:00,
2013-06-19 11:25:00,67.0,49.8,29.97,NNE,20,1.2,1.2,54,0.00,CLR,,0.00,WeatherDisplay:10.37,2013-06-19 18:25:00,
2013-06-19 11:30:00,67.9,50.1,29.97,WNW,283,2.0,2.0,53,0.00,CLR,,0.00,WeatherDisplay:10.37,2013-06-19 18:30:00,
2013-06-19 11:35:00,68.2,50.4,29.97,NNE,15,1.2,1.2,53,0.00,CLR,,0.00,WeatherDisplay:10.37,2013-06-19 18:35:00,
2013-06-19 11:40:00,68.6,51.3,29.97,NNW,345,1.2,0.0,54,0.00,CLR,,0.00,WeatherDisplay:10.37,2013-06-19 18:40:00,
2013-06-19 11:45:00,69.4,51.5,29.97,East,87,1.2,1.2,53,0.00,CLR,,0.00,WeatherDisplay:10.37,2013-06-19 18:45:00,
2013-06-19 11:50:00,70.3,50.2,29.97,NNW,346,1.2,1.2,49,0.00,CLR,,0.00,WeatherDisplay:10.37,2013-06-19 18:50:00,
2013-06-19 11:55:00,70.6,49.4,29.97,North,1,2.3,2.3,47,0.00,CLR,,0.00,WeatherDisplay:10.37,2013-06-19 18:55:00,
2013-06-19 12:00:00,70.8,50.7,29.97,SE,132,0.0,0.1,49,0.00,CLR,,0.00,WeatherDisplay:10.37,2013-06-19 19:00:00,
2013-06-19 12:05:00,71.4,50.7,29.96,North,360,1.2,0.0,48,0.00,CLR,,0.00,WeatherDisplay:10.37,2013-06-19 19:05:00,
2013-06-19 12:10:00,71.8,52.2,29.96,North,354,1.2,1.2,50,0.00,CLR,,0.00,WeatherDisplay:10.37,2013-06-19 19:10:00,
2013-06-19 12:15:00,72.2,50.3,29.96,SSE,150,3.5,3.5,46,0.00,CLR,,0.00,WeatherDisplay:10.37,2013-06-19 19:15:00,
2013-06-19 12:20:00,72.7,50.7,29.96,NW,316,3.5,3.5,46,0.00,CLR,,0.00,WeatherDisplay:10.37,2013-06-19 19:20:00,
2013-06-19 12:25:00,73.4,51.4,29.96,North,9,4.0,4.0,46,0.00,CLR,,0.00,WeatherDisplay:10.37,2013-06-19 19:25:00,
2013-06-19 12:30:00,73.7,50.4,29.96,NNE,12,2.3,2.3,44,0.00,CLR,,0.00,WeatherDisplay:10.37,2013-06-19 19:30:00,
2013-06-19 12:35:00,73.2,50.0,29.95,WNW,290,3.5,3.5,44,0.00,CLR,,0.00,WeatherDisplay:10.37,2013-06-19 19:35:00,
2013-06-19 12:40:00,73.3,50.1,29.95,North,5,2.3,2.3,44,0.00,CLR,,0.00,WeatherDisplay:10.37,2013-06-19 19:40:00,
2013-06-19 12:45:00,73.7,49.8,29.95,NNW,330,3.5,3.5,43,0.00,CLR,,0.00,WeatherDisplay:10.37,2013-06-19 19:45:00,
2013-06-19 12:50:00,74.3,50.4,29.95,WNW,283,3.5,3.5,43,0.00,CLR,,0.00,WeatherDisplay:10.37,2013-06-19 19:50:00,
2013-06-19 12:55:00,75.1,51.1,29.95,SW,226,2.3,2.3,43,0.00,CLR,,0.00,WeatherDisplay:10.37,2013-06-19 19:55:00,
2013-06-19 13:00:00,76.0,51.2,29.95,SE,145,1.2,1.2,42,0.00,CLR,,0.00,WeatherDisplay:10.37,2013-06-19 20:00:00,
2013-06-19 13:05:00,76.7,50.6,29.94,WSW,252,2.3,2.3,40,0.00,CLR,,0.00,WeatherDisplay:10.37,2013-06-19 20:05:00,
2013-06-19 13:10:00,76.8,50.6,29.94,NW,322,2.0,2.0,40,0.00,CLR,,0.00,WeatherDisplay:10.37,2013-06-19 20:10:00,
2013-06-19 13:15:00,77.0,52.8,29.94,SSW,193,1.2,1.2,43,0.00,CLR,,0.00,WeatherDisplay:10.37,2013-06-19 20:15:00,
2013-06-19 13:20:00,77.9,51.6,29.94,West,267,3.5,3.5,40,0.00,CLR,,0.00,WeatherDisplay:10.37,2013-06-19 20:20:00,
2013-06-19 13:25:00,77.8,50.9,29.94,North,357,3.5,3.5,39,0.00,CLR,,0.00,WeatherDisplay:10.37,2013-06-19 20:25:00,
2013-06-19 13:30:00,77.8,51.5,29.94,SW,233,1.2,1.2,40,0.00,CLR,,0.00,WeatherDisplay:10.37,2013-06-19 20:30:00,
2013-06-19 13:35:00,78.4,51.4,29.94,NW,311,0.0,0.0,39,0.00,CLR,,0.00,WeatherDisplay:10.37,2013-06-19 20:35:00,
2013-06-19 13:40:00,78.8,50.3,29.94,NNW,328,1.2,1.2,37,0.00,CLR,,0.00,WeatherDisplay:10.37,2013-06-19 20:40:00,
2013-06-19 13:45:00,79.5,51.7,29.94,West,273,3.5,3.5,38,0.00,CLR,,0.00,WeatherDisplay:10.37,2013-06-19 20:45:00,
2013-06-19 13:50:00,79.1,50.6,29.93,South,170,3.5,0.0,37,0.00,CLR,,0.00,WeatherDisplay:10.37,2013-06-19 20:50:00,
2013-06-19 13:55:00,79.5,51.7,29.93,West,273,1.2,0.0,38,0.00,CLR,,0.00,WeatherDisplay:10.37,2013-06-19 20:55:00,
2013-06-19 14:00:00,80.0,49.9,29.93,West,277,1.2,1.2,35,0.00,CLR,,0.00,WeatherDisplay:10.37,2013-06-19 21:00:00,
2013-06-19 14:05:00,80.0,50.6,29.93,West,267,2.3,2.3,36,0.00,CLR,,0.00,WeatherDisplay:10.37,2013-06-19 21:05:00,
2013-06-19 14:10:00,79.2,51.4,29.93,NNW,330,3.5,3.5,38,0.00,CLR,,0.00,WeatherDisplay:10.37,2013-06-19 21:10:00,
2013-06-19 14:15:00,79.7,51.1,29.92,West,267,2.0,2.0,37,0.00,CLR,,0.00,WeatherDisplay:10.37,2013-06-19 21:15:00,
2013-06-19 14:20:00,80.1,50.0,29.92,SSW,204,1.2,0.0,35,0.00,CLR,,0.00,WeatherDisplay:10.37,2013-06-19 21:20:00,
2013-06-19 14:25:00,80.5,50.3,29.92,SW,235,3.5,3.5,35,0.00,CLR,,0.00,WeatherDisplay:10.37,2013-06-19 21:25:00,
2013-06-19 14:30:00,80.8,50.6,29.92,SW,224,3.5,3.5,35,0.00,CLR,,0.00,WeatherDisplay:10.37,2013-06-19 21:30:00,
2013-06-19 14:35:00,81.3,52.5,29.92,SW,223,0.0,0.0,37,0.00,CLR,,0.00,WeatherDisplay:10.37,2013-06-19 21:35:00,
2013-06-19 14:40:00,81.7,51.4,29.92,SW,235,2.3,2.3,35,0.00,CLR,,0.00,WeatherDisplay:10.37,2013-06-19 21:40:00,
2013-06-19 14:45:00,81.9,53.1,29.91,SSE,163,0.0,0.0,37,0.00,CLR,,0.00,WeatherDisplay:10.37,2013-06-19 21:45:00,
2013-06-19 14:50:00,81.7,50.6,29.91,SSW,198,2.3,2.3,34,0.00,CLR,,0.00,WeatherDisplay:10.37,2013-06-19 21:50:00,
2013-06-19 14:55:00,81.3,50.2,29.92,North,351,3.5,3.5,34,0.00,CLR,,0.00,WeatherDisplay:10.37,2013-06-19 21:55:00,
2013-06-19 15:00:00,80.6,51.2,29.91,WSW,255,1.2,1.2,36,0.00,CLR,,0.00,WeatherDisplay:10.37,2013-06-19 22:00:00,
2013-06-19 15:05:00,80.7,50.5,29.91,WSW,256,3.5,3.5,35,0.00,CLR,,0.00,WeatherDisplay:10.37,2013-06-19 22:05:00,
2013-06-19 15:10:00,81.0,51.5,29.91,WNW,297,3.5,3.5,36,0.00,CLR,,0.00,WeatherDisplay:10.37,2013-06-19 22:10:00,
2013-06-19 15:15:00,81.3,51.8,29.91,NNE,22,6.9,6.9,36,0.00,CLR,,0.00,WeatherDisplay:10.37,2013-06-19 22:15:00,
2013-06-19 15:20:00,80.3,52.4,29.91,ENE,61,1.2,1.2,38,0.00,CLR,,0.00,WeatherDisplay:10.37,2013-06-19 22:20:00,
2013-06-19 15:25:00,80.9,52.2,29.90,West,264,1.2,1.2,37,0.00,CLR,,0.00,WeatherDisplay:10.37,2013-06-19 22:25:00,
2013-06-19 15:30:00,80.9,50.7,29.90,NNW,328,3.5,3.5,35,0.00,CLR,,0.00,WeatherDisplay:10.37,2013-06-19 22:30:00,
2013-06-19 15:35:00,80.3,53.1,29.90,NNW,345,1.2,1.2,39,0.00,CLR,,0.00,WeatherDisplay:10.37,2013-06-19 22:35:00,
2013-06-19 15:40:00,80.8,51.4,29.90,North,349,3.5,3.5,36,0.00,CLR,,0.00,WeatherDisplay:10.37,2013-06-19 22:40:00,
2013-06-19 15:45:00,81.8,53.0,29.89,West,270,1.2,1.2,37,0.00,CLR,,0.00,WeatherDisplay:10.37,2013-06-19 22:45:00,
2013-06-19 15:50:00,81.7,51.4,29.89,WSW,238,5.8,5.8,35,0.00,CLR,,0.00,WeatherDisplay:10.37,2013-06-19 22:50:00,
2013-06-19 15:55:00,82.2,51.8,29.89,WSW,257,3.5,3.5,35,0.00,CLR,,0.00,WeatherDisplay:10.37,2013-06-19 22:55:00,
2013-06-19 16:00:00,82.5,52.1,29.88,NNW,336,3.5,3.5,35,0.00,CLR,,0.00,WeatherDisplay:10.37,2013-06-19 23:00:00,
2013-06-19 16:05:00,82.4,51.2,29.88,WSW,246,1.2,1.2,34,0.00,CLR,,0.00,WeatherDisplay:10.37,2013-06-19 23:05:00,
2013-06-19 16:10:00,82.6,52.2,29.88,North,9,3.5,3.5,35,0.00,CLR,,0.00,WeatherDisplay:10.37,2013-06-19 23:10:00,
2013-06-19 16:15:00,82.7,49.8,29.88,NW,324,3.5,3.5,32,0.00,CLR,,0.00,WeatherDisplay:10.37,2013-06-19 23:15:00,
2013-06-19 16:20:00,82.4,50.4,29.88,WNW,289,2.3,2.3,33,0.00,CLR,,0.00,WeatherDisplay:10.37,2013-06-19 23:20:00,
2013-06-19 16:25:00,83.1,50.2,29.88,WSW,249,2.3,2.3,32,0.00,CLR,,0.00,WeatherDisplay:10.37,2013-06-19 23:25:00,
2013-06-19 16:30:00,83.1,49.3,29.87,West,271,2.3,2.3,31,0.00,CLR,,0.00,WeatherDisplay:10.37,2013-06-19 23:30:00,
2013-06-19 16:35:00,82.9,49.2,29.87,ENE,58,2.3,2.3,31,0.00,CLR,,0.00,WeatherDisplay:10.37,2013-06-19 23:35:00,
2013-06-19 16:40:00,82.7,49.0,29.87,NW,316,3.5,3.5,31,0.00,CLR,,0.00,WeatherDisplay:10.37,2013-06-19 23:40:00,
2013-06-19 16:45:00,82.5,48.8,29.87,North,1,5.0,5.0,31,0.00,CLR,,0.00,WeatherDisplay:10.37,2013-06-19 23:45:00,
2013-06-19 16:50:00,82.4,49.6,29.87,NE,36,3.5,3.5,32,0.00,CLR,,0.00,WeatherDisplay:10.37,2013-06-19 23:50:00,
2013-06-19 16:55:00,83.2,48.5,29.87,SSW,207,1.2,1.2,30,0.00,CLR,,0.00,WeatherDisplay:10.37,2013-06-19 23:55:00,
2013-06-19 17:00:00,83.4,48.7,29.87,SW,221,2.3,2.3,30,0.00,CLR,,0.00,WeatherDisplay:10.37,2013-06-20 00:00:00,
2013-06-19 17:05:00,83.3,47.7,29.86,NNE,28,4.0,4.0,29,0.00,CLR,,0.00,WeatherDisplay:10.37,2013-06-20 00:05:00,
2013-06-19 17:10:00,82.9,47.4,29.86,West,266,3.5,3.5,29,0.00,CLR,,0.00,WeatherDisplay:10.37,2013-06-20 00:10:00,
2013-06-19 17:15:00,82.7,47.2,29.86,North,354,3.5,3.5,29,0.00,CLR,,0.00,WeatherDisplay:10.37,2013-06-20 00:15:00,
2013-06-19 17:20:00,82.9,47.4,29.86,NNE,12,4.6,4.6,29,0.00,CLR,,0.00,WeatherDisplay:10.37,2013-06-20 00:20:00,
2013-06-19 17:25:00,83.2,47.6,29.86,NE,49,4.0,4.0,29,0.00,CLR,,0.00,WeatherDisplay:10.37,2013-06-20 00:25:00,
2013-06-19 17:30:00,83.2,46.7,29.86,South,175,2.3,2.3,28,0.00,CLR,,0.00,WeatherDisplay:10.37,2013-06-20 00:30:00,
2013-06-19 17:35:00,83.3,46.8,29.85,WNW,290,2.3,2.3,28,0.00,CLR,,0.00,WeatherDisplay:10.37,2013-06-20 00:35:00,
2013-06-19 17:40:00,83.2,46.7,29.85,NNW,336,4.6,4.6,28,0.00,CLR,,0.00,WeatherDisplay:10.37,2013-06-20 00:40:00,
2013-06-19 17:45:00,83.0,46.5,29.85,ESE,117,6.9,6.9,28,0.00,CLR,,0.00,WeatherDisplay:10.37,2013-06-20 00:45:00,
2013-06-19 17:50:00,83.2,47.6,29.85,NE,50,3.5,3.5,29,0.00,CLR,,0.00,WeatherDisplay:10.37,2013-06-20 00:50:00,
2013-06-19 17:55:00,83.2,46.7,29.85,West,281,3.5,3.5,28,0.00,CLR,,0.00,WeatherDisplay:10.37,2013-06-20 00:55:00,
2013-06-19 18:00:00,83.0,45.6,29.85,NNW,330,3.5,3.5,27,0.00,CLR,,0.00,WeatherDisplay:10.37,2013-06-20 01:00:00,
2013-06-19 18:05:00,82.6,47.1,29.85,NNW,336,5.8,5.8,29,0.00,CLR,,0.00,WeatherDisplay:10.37,2013-06-20 01:05:00,
2013-06-19 18:10:00,82.4,46.0,29.85,NW,319,5.8,5.8,28,0.00,CLR,,0.00,WeatherDisplay:10.37,2013-06-20 01:10:00,
2013-06-19 18:15:00,82.2,45.8,29.85,NW,322,5.8,5.8,28,0.00,CLR,,0.00,WeatherDisplay:10.37,2013-06-20 01:15:00,
2013-06-19 18:20:00,82.1,47.6,29.85,NNW,336,2.3,2.3,30,0.00,CLR,,0.00,WeatherDisplay:10.37,2013-06-20 01:20:00,
2013-06-19 18:25:00,82.6,47.1,29.85,NNW,342,2.3,2.3,29,0.00,CLR,,0.00,WeatherDisplay:10.37,2013-06-20 01:25:00,
2013-06-19 18:30:00,83.1,47.5,29.85,NNW,347,3.5,3.5,29,0.00,CLR,,0.00,WeatherDisplay:10.37,2013-06-20 01:30:00,
2013-06-19 18:35:00,82.7,47.2,29.85,SE,145,2.3,2.3,29,0.00,CLR,,0.00,WeatherDisplay:10.37,2013-06-20 01:35:00,
2013-06-19 18:40:00,82.7,47.2,29.85,WNW,283,3.5,3.5,29,0.00,CLR,,0.00,WeatherDisplay:10.37,2013-06-20 01:40:00,
2013-06-19 18:45:00,82.3,46.9,29.85,NNW,336,3.5,3.5,29,0.00,CLR,,0.00,WeatherDisplay:10.37,2013-06-20 01:45:00,
2013-06-19 18:50:00,82.1,46.7,29.85,West,274,3.5,3.5,29,0.00,CLR,,0.00,WeatherDisplay:10.37,2013-06-20 01:50:00,
2013-06-19 18:55:00,82.1,47.6,29.85,North,1,3.5,3.5,30,0.00,CLR,,0.00,WeatherDisplay:10.37,2013-06-20 01:55:00,
2013-06-19 19:00:00,81.9,47.4,29.85,North,1,3.5,3.5,30,0.00,CLR,,0.00,WeatherDisplay:10.37,2013-06-20 02:00:00,
2013-06-19 19:05:00,81.7,47.2,29.85,WNW,300,2.3,2.3,30,0.00,CLR,,0.00,WeatherDisplay:10.37,2013-06-20 02:05:00,
2013-06-19 19:10:00,80.8,47.3,29.85,North,4,3.5,3.5,31,0.00,CLR,,0.00,WeatherDisplay:10.37,2013-06-20 02:10:00,
2013-06-19 19:15:00,80.0,46.6,29.85,West,269,1.2,1.2,31,0.00,CLR,,0.00,WeatherDisplay:10.37,2013-06-20 02:15:00,
2013-06-19 19:20:00,79.7,47.2,29.85,WNW,283,2.3,2.3,32,0.00,CLR,,0.00,WeatherDisplay:10.37,2013-06-20 02:20:00,
2013-06-19 19:25:00,79.2,46.8,29.85,North,351,3.5,3.5,32,0.00,CLR,,0.00,WeatherDisplay:10.37,2013-06-20 02:25:00,
2013-06-19 19:30:00,78.7,47.2,29.85,WSW,240,1.2,1.2,33,0.00,CLR,,0.00,WeatherDisplay:10.37,2013-06-20 02:30:00,
2013-06-19 19:35:00,78.3,46.8,29.85,NNW,345,2.3,2.3,33,0.00,CLR,,0.00,WeatherDisplay:10.37,2013-06-20 02:35:00,
2013-06-19 19:40:00,78.0,47.4,29.85,WNW,291,1.2,0.0,34,0.00,CLR,,0.00,WeatherDisplay:10.37,2013-06-20 02:40:00,
2013-06-19 19:45:00,77.7,47.1,29.85,SE,145,1.2,1.2,34,0.00,CLR,,0.00,WeatherDisplay:10.37,2013-06-20 02:45:00,
2013-06-19 19:50:00,77.3,47.5,29.86,NNW,345,1.2,1.2,35,0.00,CLR,,0.00,WeatherDisplay:10.37,2013-06-20 02:50:00,
2013-06-19 19:55:00,76.9,47.9,29.86,NNW,333,0.0,0.0,36,0.00,CLR,,0.00,WeatherDisplay:10.37,2013-06-20 02:55:00,
2013-06-19 20:00:00,76.6,47.6,29.85,WNW,288,0.0,0.0,36,0.00,CLR,,0.00,WeatherDisplay:10.37,2013-06-20 03:00:00,
2013-06-19 20:05:00,76.2,48.0,29.86,West,274,0.0,0.0,37,0.00,CLR,,0.00,WeatherDisplay:10.37,2013-06-20 03:05:00,
2013-06-19 20:10:00,75.9,47.8,29.86,West,274,1.2,1.2,37,0.00,CLR,,0.00,WeatherDisplay:10.37,2013-06-20 03:10:00,
2013-06-19 20:15:00,75.6,47.5,29.86,NNW,335,1.2,1.2,37,0.00,CLR,,0.00,WeatherDisplay:10.37,2013-06-20 03:15:00,
2013-06-19 20:20:00,75.3,47.9,29.86,NNW,330,1.2,0.0,38,0.00,CLR,,0.00,WeatherDisplay:10.37,2013-06-20 03:20:00,
2013-06-19 20:25:00,74.8,47.5,29.86,NNW,330,0.0,0.1,38,0.00,CLR,,0.00,WeatherDisplay:10.37,2013-06-20 03:25:00,
2013-06-19 20:30:00,74.4,47.1,29.86,NNW,348,0.0,0.0,38,0.00,CLR,,0.00,WeatherDisplay:10.37,2013-06-20 03:30:00,
2013-06-19 20:35:00,74.0,47.5,29.86,North,349,1.2,0.0,39,0.00,CLR,,0.00,WeatherDisplay:10.37,2013-06-20 03:35:00,
2013-06-19 20:40:00,73.7,47.2,29.86,WSW,240,1.2,1.2,39,0.00,CLR,,0.00,WeatherDisplay:10.37,2013-06-20 03:40:00,
2013-06-19 20:45:00,73.4,46.9,29.86,NNE,12,1.2,1.2,39,0.00,CLR,,0.00,WeatherDisplay:10.37,2013-06-20 03:45:00,
2013-06-19 20:50:00,73.1,46.7,29.87,North,351,1.2,1.2,39,0.00,CLR,,0.00,WeatherDisplay:10.37,2013-06-20 03:50:00,
2013-06-19 20:55:00,72.7,46.3,29.87,NE,43,0.0,0.0,39,0.00,CLR,,0.00,WeatherDisplay:10.37,2013-06-20 03:55:00,
2013-06-19 21:00:00,72.4,46.0,29.87,NW,324,0.0,0.0,39,0.00,CLR,,0.00,WeatherDisplay:10.37,2013-06-20 04:00:00,
2013-06-19 21:01:00,72.3,45.9,29.87,NNW,339,0.0,0.0,39,0.00,CLR,,0.00,WeatherDisplay:10.37,2013-06-20 04:01:00,
2013-06-19 21:02:00,72.2,45.9,29.87,NNW,335,0.0,0.0,39,0.00,CLR,,0.00,WeatherDisplay:10.37,2013-06-20 04:02:00,
2013-06-19 21:07:00,71.9,45.6,29.87,NNW,336,0.0,0.0,39,0.00,CLR,,0.00,WeatherDisplay:10.37,2013-06-20 04:07:00,
2013-06-19 21:12:00,71.6,45.3,29.87,North,358,0.0,0.0,39,0.00,CLR,,0.00,WeatherDisplay:10.37,2013-06-20 04:12:00,
2013-06-19 21:17:00,71.3,44.4,29.87,North,356,1.2,1.2,38,0.00,CLR,,0.00,WeatherDisplay:10.37,2013-06-20 04:17:00,
2013-06-19 21:22:00,71.1,44.9,29.87,North,355,0.0,0.0,39,0.00,CLR,,0.00,WeatherDisplay:10.37,2013-06-20 04:22:00,
2013-06-19 21:27:00,70.8,45.3,29.88,North,356,0.0,0.0,40,0.00,CLR,,0.00,WeatherDisplay:10.37,2013-06-20 04:27:00,
2013-06-19 21:32:00,70.5,45.0,29.88,North,356,0.0,0.0,40,0.00,CLR,,0.00,WeatherDisplay:10.37,2013-06-20 04:32:00,
2013-06-19 21:37:00,70.4,44.9,29.88,North,352,1.2,0.0,40,0.00,CLR,,0.00,WeatherDisplay:10.37,2013-06-20 04:37:00,
2013-06-19 21:42:00,70.3,44.8,29.88,North,353,0.0,0.0,40,0.00,CLR,,0.00,WeatherDisplay:10.37,2013-06-20 04:42:00,
2013-06-19 21:47:00,70.1,44.6,29.88,North,352,0.0,0.0,40,0.00,CLR,,0.00,WeatherDisplay:10.37,2013-06-20 04:47:00,
2013-06-19 21:52:00,70.0,44.6,29.88,NNW,345,0.0,0.0,40,0.00,CLR,,0.00,WeatherDisplay:10.37,2013-06-20 04:52:00,
2013-06-19 21:57:00,69.8,44.4,29.88,NNW,347,1.2,0.0,40,0.00,CLR,,0.00,WeatherDisplay:10.37,2013-06-20 04:57:00,
2013-06-19 22:02:00,69.6,44.8,29.88,NNW,347,0.0,0.0,41,0.00,CLR,,0.00,WeatherDisplay:10.37,2013-06-20 05:02:00,
2013-06-19 22:07:00,69.4,44.7,29.88,NNW,347,0.0,0.0,41,0.00,CLR,,0.00,WeatherDisplay:10.37,2013-06-20 05:07:00,
2013-06-19 22:12:00,69.2,45.1,29.88,NNW,347,0.0,0.0,42,0.00,CLR,,0.00,WeatherDisplay:10.37,2013-06-20 05:12:00,
2013-06-19 22:17:00,68.9,46.7,29.88,NNW,347,0.0,0.0,45,0.00,CLR,,0.00,WeatherDisplay:10.37,2013-06-20 05:17:00,
2013-06-19 22:22:00,68.4,45.6,29.88,NNW,347,0.0,0.0,44,0.00,CLR,,0.00,WeatherDisplay:10.37,2013-06-20 05:22:00,
2013-06-19 22:27:00,68.0,46.4,29.88,NNW,347,0.0,0.0,46,0.00,CLR,,0.00,WeatherDisplay:10.37,2013-06-20 05:27:00,
2013-06-19 22:32:00,67.4,45.9,29.88,NNW,347,0.0,0.0,46,0.00,CLR,,0.00,WeatherDisplay:10.37,2013-06-20 05:32:00,
2013-06-19 22:37:00,66.9,46.0,29.88,NNW,347,0.0,0.0,47,0.00,CLR,,0.00,WeatherDisplay:10.37,2013-06-20 05:37:00,
2013-06-19 22:42:00,66.4,46.1,29.88,NNW,347,0.0,0.0,48,0.00,CLR,,0.00,WeatherDisplay:10.37,2013-06-20 05:42:00,
2013-06-19 22:47:00,65.9,46.7,29.88,NNW,347,0.0,0.0,50,0.00,CLR,,0.00,WeatherDisplay:10.37,2013-06-20 05:47:00,
2013-06-19 22:52:00,65.5,45.8,29.88,NNW,347,0.0,0.0,49,0.00,CLR,,0.00,WeatherDisplay:10.37,2013-06-20 05:52:00,
2013-06-19 22:57:00,65.3,46.2,29.88,NNW,347,0.0,0.0,50,0.00,CLR,,0.00,WeatherDisplay:10.37,2013-06-20 05:57:00,
2013-06-19 23:02:00,65.4,45.7,29.88,NNW,347,0.0,0.0,49,0.00,CLR,,0.00,WeatherDisplay:10.37,2013-06-20 06:02:00,
2013-06-19 23:07:00,65.4,46.3,29.88,NNW,347,0.0,0.0,50,0.00,CLR,,0.00,WeatherDisplay:10.37,2013-06-20 06:07:00,
2013-06-19 23:12:00,65.3,46.7,29.88,NNW,347,0.0,0.0,51,0.00,CLR,,0.00,WeatherDisplay:10.37,2013-06-20 06:12:00,
2013-06-19 23:17:00,65.3,46.2,29.88,NNW,347,0.0,0.0,50,0.00,CLR,,0.00,WeatherDisplay:10.37,2013-06-20 06:17:00,
2013-06-19 23:22:00,65.2,47.6,29.88,NNW,347,0.0,0.0,53,0.00,CLR,,0.00,WeatherDisplay:10.37,2013-06-20 06:22:00,
2013-06-19 23:27:00,65.1,47.5,29.88,NNW,347,0.0,0.0,53,0.00,CLR,,0.00,WeatherDisplay:10.37,2013-06-20 06:27:00,
2013-06-19 23:32:00,64.7,45.6,29.88,NNW,347,0.0,0.0,50,0.00,CLR,,0.00,WeatherDisplay:10.37,2013-06-20 06:32:00,
2013-06-19 23:37:00,64.3,46.3,29.88,NNW,347,0.0,0.0,52,0.00,CLR,,0.00,WeatherDisplay:10.37,2013-06-20 06:37:00,
2013-06-19 23:42:00,63.8,45.8,29.88,NNW,347,0.0,0.0,52,0.00,CLR,,0.00,WeatherDisplay:10.37,2013-06-20 06:42:00,
2013-06-19 23:47:00,63.5,47.5,29.88,NNW,347,0.0,0.0,56,0.00,CLR,,0.00,WeatherDisplay:10.37,2013-06-20 06:47:00,
2013-06-19 23:52:00,63.3,47.3,29.88,NNW,347,0.0,0.0,56,0.00,CLR,,0.00,WeatherDisplay:10.37,2013-06-20 06:52:00,
2013-06-19 23:57:00,63.0,46.1,29.88,NNW,347,0.0,0.0,54,0.00,CLR,,0.00,WeatherDisplay:10.37,2013-06-20 06:57:00,